Probability
29 27 25 23 15 4 0 0 0 0 0 0 0 0 0 0 0 0 0 0 0 0 1 3 3 2 1 1 3 4 4 4 3 3 3 2 2 2 2 2 3 3 3 3 3 3 4 5 6
28 26 24 19 9 2 0 0 0 0 0 0 0 0 0 0 0 0 0 0 0 1 2 3 3 2 1 1 3 4 5 4 3 3 2 1 1 1 1 1 2 2 3 3 3 3 4 5 6
22 22 20 11 3 0 0 0 0 0 0 0 0 0 0 0 0 0 0 0 0 2 3 3 3 1 0 1 2 3 4 4 3 2 1 0 0 0 0 0 1 1 2 3 3 3 3 4 6
16 16 12 5 0 0 0 1 0 0 0 0 0 0 0 0 0 0 0 0 0 1 2 2 2 1 0 0 1 1 2 2 2 1 0 0 0 0 0 0 0 1 2 3 3 3 3 4 6
12 10 5 1 0 0 1 1 1 1 0 0 0 0 1 1 1 0 0 0 0 0 1 1 1 0 0 0 1 1 1 1 1 0 0 0 0 0 0 0 0 1 2 3 3 3 4 6 7
7 5 1 0 0 1 2 2 2 2 1 0 0 1 2 2 2 1 0 0 0 0 0 0 1 1 0 1 1 1 0 0 0 0 0 0 0 0 0 0 0 1 3 3 3 3 5 7 8
2 1 0 0 0 1 2 3 3 2 1 0 0 1 2 3 2 1 1 1 1 0 0 0 0 1 1 1 1 0 0 0 0 0 0 0 0 0 0 0 1 2 3 3 3 3 5 7 7
1 0 0 0 0 1 2 3 3 2 1 0 0 1 2 4 3 2 1 2 1 0 0 0 0 0 0 0 0 0 0 0 0 0 0 0 0 1 1 1 1 2 3 3 3 4 4 4 4
1 0 0 0 0 1 2 3 3 2 1 0 0 1 3 5 5 3 3 2 2 1 0 0 0 0 0 0 0 0 0 0 0 0 0 0 0 1 1 1 1 3 3 3 3 3 3 2 1
1 0 0 0 0 1 2 3 3 2 1 1 2 3 5 6 5 5 3 2 1 1 0 0 0 0 0 0 0 0 0 0 0 0 0 0 1 2 1 1 1 2 2 2 2 2 1 1 0
0 0 0 0 0 0 1 2 2 2 1 2 5 9 9 6 4 4 2 1 0 0 0 0 0 1 1 0 1 1 0 0 0 0 0 1 2 2 1 1 1 1 1 1 1 0 0 0 0
0 0 0 0 0 0 0 1 1 1 0 3 8 12 11 7 3 1 1 0 0 0 0 0 1 2 2 1 1 2 1 1 1 1 1 1 2 2 2 2 1 0 0 0 0 0 0 0 0
0 0 0 0 0 0 0 0 0 0 1 5 10 11 9 7 4 1 1 1 1 1 0 0 1 3 3 1 1 2 3 2 3 2 1 0 1 1 2 3 2 1 0 0 0 0 0 0 0
0 0 0 0 0 0 0 0 0 0 2 7 10 8 6 6 5 3 2 2 2 2 1 1 2 3 3 2 1 2 2 3 3 2 1 0 0 1 3 3 3 2 1 0 0 0 1 2 1
0 0 0 0 0 0 0 0 0 0 1 5 7 5 3 4 4 3 3 3 3 3 2 2 3 3 3 2 1 1 1 1 2 2 1 0 1 2 3 3 3 3 2 1 1 1 1 3 2
0 0 0 0 0 0 0 1 1 1 0 1 2 3 3 4 3 3 3 3 3 4 4 4 4 4 4 2 1 1 0 0 1 2 2 1 1 2 3 3 3 2 2 1 1 1 2 3 2
0 0 0 0 0 0 0 1 1 1 0 0 1 2 3 4 3 1 1 2 3 5 7 9 7 6 5 4 3 2 1 1 0 1 1 1 0 1 1 2 1 1 1 1 1 1 2 2 2
0 0 0 0 0 0 0 0 0 0 0 0 0 1 2 3 2 1 0 1 2 6 10 13 12 9 7 6 5 4 4 3 2 1 1 1 1 1 0 0 0 1 2 1 0 0 1 1 1
0 0 0 0 0 0 0 0 0 0 0 0 0 1 1 2 2 1 0 0 2 6 11 14 14 12 10 8 8 8 7 6 4 3 3 3 3 2 1 0 0 2 2 1 0 0 0 0 1
0 0 0 0 0 0 0 0 0 0 0 0 1 1 2 3 2 1 0 1 3 7 10 12 13 13 13 11 10 10 9 7 5 6 7 7 6 4 2 0 0 1 1 1 1 2 2 1 1
0 0 0 0 0 0 0 0 0 1 2 1 1 1 2 4 4 2 2 4 5 8 10 10 11 13 14 13 10 10 10 8 6 7 8 9 9 7 4 1 0 0 1 1 2 3 4 3 3
0 0 0 0 0 0 0 0 0 2 3 3 2 1 3 6 7 6 6 8 8 9 9 9 10 11 13 12 10 10 11 10 8 8 8 9 9 9 6 2 1 1 1 2 3 4 5 5 6
1 1 1 0 0 0 0 0 0 1 3 3 3 3 5 9 10 9 9 10 10 10 9 9 9 10 11 11 11 11 13 13 12 10 9 9 10 9 8 5 4 4 4 4 4 4 5 6 6
2 2 1 0 0 0 0 0 0 1 3 4 5 6 7 10 11 12 12 14 14 12 10 9 9 10 12 12 12 13 14 16 16 15 13 12 11 10 9 8 6 5 5 5 5 5 4 4 5
2 2 1 0 0 0 0 0 1 2 4 5 6 7 8 9 11 12 15 18 18 15 13 12 11 12 13 12 12 12 13 16 17 15 14 13 12 11 11 10 8 7 6 6 6 6 3 2 2
1 1 0 0 0 0 0 1 2 2 2 3 5 7 9 11 12 13 16 19 19 16 15 15 16 16 14 11 10 10 11 13 14 13 11 11 11 12 12 11 9 7 6 6 7 6 3 1 1
1 0 0 0 0 0 0 1 2 3 3 4 7 9 12 15 16 15 15 17 17 15 14 15 17 18 15 12 10 10 10 12 12 10 8 8 9 11 12 13 11 9 8 7 7 6 6 5 4
1 0 0 0 0 0 0 0 3 6 7 7 10 12 16 19 19 16 15 15 15 14 13 13 15 17 15 13 11 10 10 10 8 7 7 9 11 12 13 14 14 12 10 8 8 7 8 8 7
1 0 0 0 0 0 0 1 4 8 10 10 11 14 18 20 18 15 14 14 14 14 13 12 13 14 14 12 10 10 9 8 7 6 8 12 15 16 17 17 16 14 11 9 7 7 8 8 7
0 0 0 0 0 0 0 1 4 9 10 9 11 15 19 18 16 13 12 14 13 12 13 12 13 13 12 11 10 10 10 9 7 7 10 13 17 19 20 19 17 15 13 9 7 6 7 7 7
Wind_Speed
13 10 6 6 4 6 13 10 9 8 8 9 8 7 8 9 8 8 5 5 5 6 8 10 8 8 8 9 10 10 11 11 10 10 10 10 10 11 11 12 12 12 12 12 12 12 12 13 13
10 7 6 4 3 10 12 10 11 11 9 7 8 8 9 9 8 7 6 5 5 7 8 9 9 9 9 9 9 9 10 10 10 10 10 10 10 10 10 11 11 12 11 11 11 12 11 12 13
7 7 5 2 11 12 12 10 10 10 7 5 6 7 7 8 7 6 8 6 6 8 8 11 8 9 9 8 9 9 9 9 10 10 10 10 10 10 10 10 11 11 11 11 11 11 11 11 12
6 6 2 6 14 13 11 9 8 8 8 7 7 9 8 7 5 8 9 7 8 8 8 12 8 8 8 8 8 8 9 9 9 10 10 10 10 10 10 9 10 10 10 10 10 10 10 11 12
6 3 5 11 14 11 10 8 6 8 8 8 8 11 10 7 9 10 8 7 8 8 8 11 9 8 7 7 8 8 8 8 9 9 9 9 9 9 9 9 9 9 9 10 9 10 10 10 11
4 1 7 11 12 10 9 7 8 10 11 10 10 10 9 7 8 8 8 7 7 7 8 10 10 7 7 7 7 7 7 8 8 8 8 8 8 9 9 8 8 8 9 9 9 10 9 9 9
2 4 10 11 11 10 8 7 7 8 9 8 7 9 9 8 8 7 7 7 6 7 7 7 7 8 7 6 6 6 7 7 7 8 8 8 8 8 8 8 8 8 8 9 9 9 9 8 8
3 1 9 10 10 11 8 7 7 7 9 8 4 7 9 9 8 8 7 7 6 5 6 7 6 5 5 7 7 6 7 7 7 8 8 8 8 8 7 7 7 7 7 9 9 8 8 7 7
4 2 9 9 8 9 9 8 7 7 9 8 7 9 11 12 9 8 8 7 6 5 4 5 6 5 4 5 7 7 9 8 7 8 8 6 5 6 6 7 6 6 7 8 8 7 7 7 7
2 6 11 8 7 9 8 7 7 7 9 9 10 11 12 11 9 8 7 7 7 6 5 4 4 4 4 3 5 4 5 6 4 4 5 4 3 3 4 8 6 6 7 8 7 6 7 7 6
3 8 8 7 7 8 9 8 6 7 7 7 10 12 12 10 8 7 6 5 6 6 5 5 4 4 3 3 3 3 3 3 4 4 3 3 3 3 3 4 5 6 7 6 7 7 4 3 2
4 6 5 7 7 7 8 8 7 5 8 8 10 12 11 10 8 7 6 5 5 5 5 5 5 4 3 2 3 3 3 2 3 4 3 3 2 2 3 2 3 3 3 3 2 2 3 2 2
5 6 6 7 7 8 8 8 7 8 8 10 11 11 10 8 7 6 5 5 4 4 5 5 4 4 3 2 1 3 3 2 3 3 3 2 2 2 3 2 1 2 2 3 3 2 3 3 3
5 6 7 8 8 7 7 7 6 8 9 11 11 10 9 7 7 6 5 5 4 4 4 4 4 4 3 3 2 2 3 2 2 2 3 1 2 2 2 3 2 2 2 2 2 2 2 2 2
6 7 8 6 6 6 6 6 6 9 10 10 10 9 8 7 6 6 5 5 5 5 4 4 4 4 4 3 2 2 2 2 2 2 2 2 2 2 1 2 2 1 2 2 2 3 2 2 2
7 6 5 6 4 5 6 4 8 10 10 9 9 9 8 7 6 5 5 5 4 4 4 4 4 5 4 3 2 1 1 2 1 1 2 2 2 2 1 1 1 1 1 2 2 2 2 1 1
7 4 3 7 5 5 5 3 8 9 10 9 9 9 8 8 7 6 6 6 5 5 5 5 4 4 3 3 2 2 1 1 1 1 1 2 2 2 1 0 1 2 1 2 2 2 2 2 2
4 3 3 3 6 6 4 2 7 9 9 9 9 8 8 8 8 7 7 6 6 6 5 5 5 4 4 3 3 2 1 1 1 1 1 1 1 2 1 1 1 1 1 1 1 1 2 2 2
3 4 3 3 3 5 4 3 5 8 9 9 9 9 9 8 8 8 8 7 7 6 6 5 5 5 4 3 3 2 2 2 2 1 1 1 1 1 1 1 1 1 1 1 2 2 3 2 2
6 6 4 5 3 4 3 3 4 8 10 9 10 10 10 9 9 9 8 8 8 7 6 6 6 5 5 3 2 1 1 1 1 1 2 1 1 2 2 1 1 1 1 1 1 2 2 2 2
8 7 4 3 5 6 5 5 6 7 8 9 10 10 10 10 10 10 10 9 8 8 8 6 5 5 4 4 3 2 2 2 2 2 2 2 2 2 1 1 1 1 2 1 2 2 3 3 3
8 5 5 5 7 4 5 3 5 7 9 10 10 10 10 10 10 10 11 10 9 9 8 7 6 6 5 5 3 3 2 1 1 1 1 2 2 2 2 2 2 2 2 1 3 2 3 3 3
3 3 5 7 7 6 5 6 3 6 6 9 10 11 11 11 11 11 11 10 9 9 8 8 7 6 5 5 4 4 3 2 1 1 2 2 2 2 2 2 2 3 2 2 2 1 3 3 3
6 6 5 7 8 7 3 6 1 3 3 4 8 11 11 11 11 11 10 10 9 8 8 7 7 6 5 5 4 4 3 2 2 2 2 2 2 2 2 2 2 2 2 2 2 2 3 2 3
10 9 7 8 7 4 2 6 1 2 1 2 4 8 11 11 11 11 11 11 10 9 8 8 7 6 5 5 4 4 3 3 3 3 2 2 1 1 1 1 2 2 1 2 2 2 2 2 3
13 13 8 6 5 4 6 5 1 2 1 2 3 6 9 10 10 11 11 10 10 9 9 8 7 6 6 5 4 3 4 3 2 2 2 1 1 1 0 1 2 2 2 2 2 2 2 2 3
12 12 10 9 8 6 4 3 3 3 3 4 5 7 9 9 10 10 10 10 10 9 8 8 7 6 6 5 4 4 3 2 2 2 2 2 1 1 1 1 1 1 1 1 2 1 2 2 3
9 9 8 10 7 8 6 6 3 3 3 4 5 7 8 9 9 10 9 10 9 9 8 7 7 6 6 5 4 4 3 3 2 2 1 1 1 0 1 1 1 1 1 1 2 2 1 2 1
9 10 9 8 8 9 7 2 2 2 2 3 4 5 8 9 9 9 8 9 9 8 8 8 7 7 6 5 4 3 3 3 3 2 2 1 1 1 1 0 1 1 1 1 1 1 1 1 1
10 11 12 10 8 9 9 1 5 2 2 2 3 5 6 7 7 8 8 8 9 9 8 8 7 7 6 5 5 4 3 3 3 2 2 2 1 1 1 1 1 1 1 1 1 1 1 1 1
Wind_Direction
171 181 207 231 213 75 63 59 59 66 64 59 58 58 56 43 37 68 85 90 97 98 103 111 94 97 96 94 95 99 103 104 104 106 108 107 106 105 107 110 113 114 114 115 118 120 121 124 125
173 189 226 240 51 69 66 60 62 63 83 91 79 76 74 68 61 87 103 96 106 99 102 96 99 97 96 92 94 100 103 103 101 101 106 106 106 105 105 107 110 112 113 117 120 120 122 125 126
183 228 264 32 53 56 67 68 75 83 85 85 84 63 58 64 71 87 98 113 109 97 98 99 103 97 98 95 94 100 105 104 102 102 103 103 105 106 106 105 106 107 111 115 116 118 122 126 128
220 220 221 63 67 62 70 83 91 92 81 75 91 84 73 53 66 93 110 118 106 106 105 102 105 102 102 101 100 101 107 108 105 103 102 102 103 105 106 106 107 108 110 111 112 114 117 125 128
240 250 86 74 71 73 77 85 84 76 78 83 86 92 86 74 90 103 112 108 101 100 96 100 103 108 107 108 107 106 109 109 108 106 106 106 107 108 108 109 110 112 112 113 113 111 114 120 127
241 246 67 73 78 82 88 92 86 83 90 92 95 97 88 103 105 107 108 103 97 98 98 103 110 103 100 105 109 112 112 111 111 110 109 109 108 107 107 107 111 114 116 116 114 113 114 118 125
321 50 71 78 86 88 87 92 82 90 94 88 94 99 110 114 107 110 109 105 99 99 103 104 117 117 117 105 99 109 115 116 115 113 111 109 109 107 107 107 110 115 120 122 122 120 117 117 123
301 69 81 78 81 88 101 98 80 82 87 94 95 100 118 124 125 123 120 113 102 99 106 115 109 105 125 121 106 106 117 117 118 114 114 117 123 121 122 126 114 118 125 127 127 127 125 128 130
250 76 70 70 79 98 116 111 97 92 103 98 79 84 109 127 135 134 126 122 119 110 104 103 110 115 113 101 111 127 134 133 146 134 137 159 141 132 142 103 116 128 132 132 131 136 141 151 149
251 61 65 65 78 106 117 110 119 123 115 112 107 106 121 138 146 142 133 130 125 120 115 108 108 117 108 91 102 112 125 130 132 120 137 134 121 114 108 117 122 131 139 143 140 151 168 191 162
67 66 76 87 96 112 121 118 122 120 113 120 129 135 142 146 149 143 134 126 116 119 115 119 111 100 98 106 97 94 103 115 120 116 122 120 133 135 134 135 142 146 162 156 151 177 180 166 143
92 78 81 93 110 119 117 118 114 97 87 112 130 141 147 152 150 144 135 125 121 120 119 113 114 113 94 75 98 116 113 117 112 121 136 130 125 128 109 125 130 144 142 137 153 155 149 144 164
110 90 91 104 118 117 119 113 106 104 109 123 132 144 150 150 145 140 134 134 132 131 126 116 121 119 119 117 104 105 108 111 115 121 116 128 139 132 126 118 130 137 131 152 163 158 149 169 178
102 111 112 120 122 129 125 120 122 116 132 136 142 148 151 150 149 146 153 152 148 138 132 130 144 140 140 142 126 105 112 120 116 122 114 129 122 125 146 148 154 149 164 151 170 168 181 196 168
142 139 132 132 143 145 154 131 123 133 149 149 151 152 153 154 156 159 159 162 153 147 147 152 159 151 155 154 155 137 129 126 111 116 118 135 131 133 173 148 175 155 164 170 197 193 195 201 187
184 189 155 139 169 171 230 118 131 150 162 160 159 159 164 164 167 164 165 167 155 153 153 169 168 157 164 164 182 155 133 121 129 141 133 139 131 163 208 174 153 177 197 196 194 220 207 196 211
198 204 144 140 179 185 225 116 134 164 173 169 170 170 172 171 177 173 175 170 166 164 165 170 171 170 175 171 179 179 148 130 148 141 131 141 160 174 207 155 104 222 215 219 234 182 231 214 229
187 200 172 156 166 200 214 144 146 173 186 180 179 179 179 181 180 176 177 173 171 168 170 171 176 178 187 181 176 180 165 176 164 154 132 158 174 177 220 175 177 234 203 220 235 229 233 249 250
235 227 193 128 146 209 213 200 167 178 190 187 187 188 189 188 175 174 176 176 172 171 173 177 181 172 188 189 197 183 173 175 171 171 137 176 202 180 214 224 155 248 221 249 239 235 212 225 234
222 224 202 152 160 231 229 225 183 187 197 197 193 191 194 185 175 177 179 178 180 177 179 182 182 178 190 178 195 195 187 189 155 145 133 191 199 217 199 209 232 218 230 242 253 246 258 241 220
220 235 227 185 174 207 242 209 180 182 194 196 201 197 195 191 184 180 182 182 183 182 184 184 182 180 186 185 191 182 180 201 177 176 176 197 206 216 251 236 262 250 242 225 243 231 235 247 236
220 218 230 208 221 205 243 257 153 175 187 194 197 196 195 191 190 187 184 184 187 185 181 180 181 182 183 196 203 205 208 209 178 210 157 188 209 226 229 237 240 256 260 236 240 214 242 240 241
225 184 216 221 238 249 216 266 132 165 192 195 195 197 196 191 190 189 189 186 186 185 180 177 178 181 184 196 199 216 224 213 202 205 165 222 207 226 231 234 240 243 254 256 263 240 254 250 258
160 169 187 222 237 237 231 263 209 156 193 191 185 190 193 190 186 187 187 182 182 181 179 174 174 180 186 195 199 216 226 227 231 232 218 219 204 211 212 230 239 246 259 254 251 248 233 261 269
198 210 214 214 219 221 174 251 292 72 144 222 186 181 185 186 184 182 181 178 177 178 177 173 172 177 183 191 199 205 217 221 223 231 216 240 236 209 178 240 239 254 253 256 260 243 258 253 260
210 225 238 251 240 195 186 239 126 99 139 199 185 172 175 181 182 180 178 175 175 176 177 177 174 177 180 185 192 202 216 228 221 233 262 245 267 289 278 225 231 245 252 248 238 244 237 243 256
209 226 248 254 260 258 208 203 191 169 174 178 174 165 171 176 176 176 175 174 172 175 176 174 171 176 179 180 186 191 201 224 226 221 234 232 236 236 220 225 223 224 229 254 250 258 259 252 263
246 225 227 244 244 253 233 229 213 188 179 173 177 172 171 173 171 173 172 172 169 169 169 171 171 172 174 177 188 179 188 197 206 219 211 254 254 276 236 221 197 195 195 214 243 223 226 245 257
195 211 229 243 253 258 255 209 89 177 177 183 176 169 171 175 173 171 171 170 165 165 168 170 167 168 172 172 172 178 180 184 192 194 193 199 203 195 211 212 202 212 229 216 232 263 242 246 258
221 220 220 233 233 248 269 196 94 105 128 140 144 151 162 172 169 168 167 167 168 170 169 169 171 173 172 168 168 174 174 172 182 177 182 178 171 189 186 199 202 226 237 237 230 258 280 290 304